sat.trackr.live / text

‹ back to catalog

STARLINK-31493

NORAD 59329 · 2024-057K

PAYLOAD ACTIVE UNKNOWN

§ Identity

Operator
Country
US
Launch date
2024-03-25
Launch site
AFETR
Launch vehicle
Mass (kg)
RCS (m²)

Purposes: comms

External: N2YO · Heavens-Above · Gunter

§ Orbital elements

Epoch: 2026-05-25T05:06:21.572352Z

Period
94.27 min
Inclination
43.0005°
Eccentricity
0.0001061
Mean motion
15.27574867 rev/d
Perigee alt
482.3 km
Apogee alt
483.8 km
Semi-major
6,861.2 km
B*
4.0111e-5
RAAN
114.7967°
Arg perigee
269.9752°
Mean anomaly
90.0978°
Rev number
12,154

§ Raw data

STARLINK-314931 59329U 24057K   26145.21274968  .00000842  00000+0  40111-4 0  99972 59329  43.0005 114.7967 0001061 269.9752  90.0978 15.27574867121543

JSON: /api/v1/satellites/59329 · /tle

For live sub-satellite position, see the globe view (requires WebGL).

§ Visibility from observer

Set your observer location to see the next 7 days of passes ≥ 10°. The values pass through the URL so the page stays shareable.

No JS? Fill the form by hand. The geolocation button needs JavaScript.